TimePST,TemperatureF,Dew PointF,Humidity,Sea Level PressureIn,VisibilityMPH,Wind Direction,Wind SpeedMPH,Gust SpeedMPH,PrecipitationIn,Events,Conditions,WindDirDegrees,DateUTC
12:52 AM,45.0,34.0,65,30.04,10.0,NW,6.9,-,N/A,,Clear,320,2013-12-22 08:52:00
1:52 AM,43.0,34.0,71,30.06,10.0,North,6.9,-,N/A,,Clear,350,2013-12-22 09:52:00
2:52 AM,42.1,34.0,73,30.07,10.0,North,6.9,-,N/A,,Clear,350,2013-12-22 10:52:00
3:52 AM,39.9,34.0,79,30.09,10.0,NNE,5.8,-,N/A,,Clear,20,2013-12-22 11:52:00
4:52 AM,39.9,35.1,83,30.11,10.0,West,5.8,-,N/A,,Clear,280,2013-12-22 12:52:00
5:52 AM,42.1,36.0,79,30.14,10.0,SW,3.5,-,N/A,,Clear,220,2013-12-22 13:52:00
6:52 AM,39.0,35.1,86,30.17,10.0,NNW,8.1,-,N/A,,Clear,340,2013-12-22 14:52:00
7:52 AM,43.0,34.0,71,30.19,10.0,East,4.6,-,N/A,,Clear,80,2013-12-22 15:52:00
8:52 AM,48.0,37.0,66,30.23,10.0,SE,3.5,-,N/A,,Clear,130,2013-12-22 16:52:00
9:52 AM,53.1,37.9,57,30.25,10.0,Calm,Calm,-,N/A,,Clear,0,2013-12-22 17:52:00
10:52 AM,59.0,37.0,44,30.24,10.0,Calm,Calm,-,N/A,,Clear,0,2013-12-22 18:52:00
11:52 AM,62.1,37.0,39,30.22,10.0,ENE,4.6,-,N/A,,Clear,70,2013-12-22 19:52:00
12:52 PM,64.9,35.1,33,30.20,10.0,Calm,Calm,-,N/A,,Clear,0,2013-12-22 20:52:00
1:52 PM,64.9,35.1,33,30.19,10.0,Variable,3.5,-,N/A,,Clear,0,2013-12-22 21:52:00
2:52 PM,66.0,34.0,30,30.18,10.0,East,4.6,-,N/A,,Clear,90,2013-12-22 22:52:00
3:52 PM,64.9,34.0,32,30.19,10.0,ESE,3.5,-,N/A,,Clear,110,2013-12-22 23:52:00
4:52 PM,61.0,35.1,38,30.20,10.0,SE,3.5,-,N/A,,Clear,130,2013-12-23 00:52:00
5:52 PM,57.0,35.1,44,30.21,10.0,Calm,Calm,-,N/A,,Clear,0,2013-12-23 01:52:00
6:52 PM,54.0,35.1,49,30.24,10.0,NNW,4.6,-,N/A,,Clear,330,2013-12-23 02:52:00
7:52 PM,53.1,32.0,45,30.25,10.0,North,5.8,-,N/A,,Clear,350,2013-12-23 03:52:00
8:52 PM,53.1,30.9,43,30.26,10.0,West,4.6,-,N/A,,Clear,280,2013-12-23 04:52:00
9:52 PM,51.1,34.0,52,30.27,10.0,West,3.5,-,N/A,,Clear,270,2013-12-23 05:52:00
10:52 PM,51.1,30.0,44,30.28,10.0,NNW,3.5,-,N/A,,Clear,340,2013-12-23 06:52:00
11:52 PM,48.0,33.1,56,30.28,10.0,Variable,4.6,-,N/A,,Clear,0,2013-12-23 07:52:00